WINGS NECK MA US USARMY-COE current weather conditions

sailwx.info

Wind from 013 at 12 knots

Air temperature 9.2° C

Last reported at 2020-Oct-25 07:30 UTC.
Time now 2020-Oct-26 02:05 UTC

Location: N 41°44' W 070°36'.
View on Google Maps.

See reports from other nearby stations

  
Tides and Currents Weather Stations Pressure Air Temp Water Temp Dewpoint Dewpoint Depression Visibility Wind Speed Wind Dir Waves Ship Positions
date/time (UTC)wind fromknots sea level pressurealtimeterstation pressurevisibilityair tempwater tempwave heightnotes
2020-Oct-25 07:30 013 12 9.2
2020-Oct-25 06:30 014 11 9.4
2020-Oct-25 05:30 019 13 10.2
2020-Oct-25 04:30 005 18 11.1
2020-Oct-25 03:30 009 13 13.2
2020-Oct-25 02:30 020 13 15.1
2020-Oct-25 01:30 020 14 16.6
2020-Oct-25 00:30 320 6 17.6
2020-Oct-24 23:30 305 8 17.7
2020-Oct-24 22:30 283 11 17.7
2020-Oct-24 21:30 270 13 17.6
2020-Oct-24 20:30 258 11 17.4
2020-Oct-24 19:30 251 11 17.6
2020-Oct-24 18:30 265 13 17.3
2020-Oct-24 17:30 256 9 16.9
2020-Oct-24 16:30 248 12 16.8
2020-Oct-24 15:30 264 8 16.7
2020-Oct-24 14:31 247 7 16.4
2020-Oct-24 14:30 247 7 16.4
2020-Oct-24 13:30 211 5 16.1
2020-Oct-24 12:30 200 3 15.6
2020-Oct-24 11:30 330 7 15.1
2020-Oct-24 10:30 330 5 15.3
2020-Oct-24 09:30 263 5 15.9
2020-Oct-24 08:31 186 2 15.7
2020-Oct-24 08:30 186 2 15.7
2020-Oct-24 07:30 175 3 15.6
2020-Oct-24 06:30 163 2 15.1
2020-Oct-24 05:30 135 14.8
2020-Oct-24 04:30 151 0 14.5
2020-Oct-24 03:30 093 13.9
2020-Oct-24 02:30 148 3 13.5
2020-Oct-24 02:15 150 4 13.4